Regional Weather Roundup
Issued by NWS

Home | Current Version | Previous Version | Text Only | Print | Product List | Glossary Off
Versions: 1 2 3 4 5 6 7 8 9 10 11 12 13 14 15 16 17 18 19 20 21 22 23 24 25 26 27 28 29 30 31 32 33 34 35 36 37 38 39 40 41 42 43 44 45 46 47 48 49 50

000
ASUS43 KLOT 070522
RWRIL

ILLINOIS REGIONAL WEATHER ROUNDUP
NATIONAL WEATHER SERVICE CHICAGO/ROMEOVILLE IL
1200 AM CDT TUE JUL 07 2015

NOTE: "FAIR" INDICATES FEW OR NO CLOUDS BELOW 12,000 FEET WITH NO
SIGNIFICANT WEATHER AND/OR OBSTRUCTIONS TO VISIBILITY.

* THESE STATIONS ARE NOT UNDER NWS QUALITY CONTROL. THEY ALSO MAY NOT
  REPORT WEATHER SUCH AS PRECIPITATION OR FOG.

ILZ001-002-007-009-015-016-024-070600-
NORTHWEST ILLINOIS

CITY           SKY/WX    TMP DP  RH WIND       PRES   REMARKS
MOLINE         LGT RAIN  68  65  90 N16G28    29.86S
STERLING*      CLOUDY    70  68  94 W15G21    29.84F
SAVANNA*       DRIZZLE   67  65  92 NW8       29.87R
$$

ILZ003-004-008-010-011-017-018-070600-
NORTH CENTRAL ILLINOIS

CITY           SKY/WX    TMP DP  RH WIND       PRES   REMARKS
ROCKFORD       LGT RAIN  72  67  84 W16G23    29.85F
FREEPORT*      DRIZZLE   67  66  97 NW12      29.88R
ROCHELLE*      CLOUDY    70  69  96 W3        29.86F
DE KALB*       CLOUDY    69  67  95 W6        29.86F
PERU*          CLOUDY    72  70  94 S3        29.86F
$$

ILZ005-006-012>014-019>023-070600-
NORTHEAST ILLINOIS

CITY           SKY/WX    TMP DP  RH WIND       PRES   REMARKS
CHICAGO-OHARE  LGT RAIN  71  69  93 W8        29.84F
CHICAGO-MIDWAY LGT RAIN  73  69  87 W8        29.86R
AURORA         CLOUDY    72  68  87 SE5       29.86F
LANSING*       CLOUDY    75  69  82 S6        29.86S
JOLIET*        LGT RAIN  73  72  96 CALM      29.86F
WAUKEGAN       LGT RAIN  71  69  93 SW9       29.84F
DUPAGE AIRPORT LGT RAIN  70  68  93 CALM      29.85F
KANKAKEE*      CLOUDY    76  72  87 S9G17     29.87S
WHEELING       RAIN      71  68  90 W8        29.86F FOG
MORRIS*        DRIZZLE   71  70  95 CALM      29.84S
ROMEOVILLE*    LGT RAIN  71  71  99 NW5       29.86F
NORTHERLY ISL    N/A     72  68  87 W7          N/A
$$

LMZ740>746-070600-
SOUTHERN LAKE MICHIGAN

STATION/POSITION SKY/WX   TEMP    WIND        PRES    VSBY  WAVE
                          AIR SEA DIR/SP/G                  HT/PER
                          (F)     (DEG/KT/KT) (MB)    (MI)  (FT/S)
HARRISON CRIB              71     270/ 16/ 19   N/A
BURNHAM HARBOR             72     240/  6/ 10   N/A
CALUMET HARBOR             73     190/  5/  7   N/A
BURNS HARBOR               74     240/ 10/ 15 1011.9F
MICHIGAN CITY              76     170/  9/ 11   N/A
MICHIGAN CITY 6N           73 68  210/  6/ 10   N/A           1
ST. JOSEPH                 71 66  270/ 10/ 10   N/A           2/ 2
$$

ILZ025>027-034>036-040-047-049-050-058-095>099-070600-
WEST-CENTRAL ILLINOIS

CITY           SKY/WX    TMP DP  RH WIND       PRES   REMARKS
QUINCY         CLOUDY    73  71  93 SE6       29.87F
GALESBURG*     CLOUDY    70  69  97 CALM      29.86F
MACOMB*        CLOUDY    71  70  98 SW5       29.89S
JACKSONVILLE*  CLOUDY    80  74  83 S12       29.86F HX  84
PITTSFIELD*    RAIN      73  70  89 W3        29.89F
$$

ILZ028>032-037-038-041>044-048-051>054-059>061-070600-
CENTRAL ILLINOIS

CITY           SKY/WX    TMP DP  RH WIND       PRES   REMARKS
PONTIAC        LGT RAIN  73  73  97 W3        29.88F
BLOOMINGTON    CLOUDY    77  74  90 S17       29.87F
DECATUR        CLOUDY    78  73  84 S13       29.89F HX  81
PEORIA         LGT RAIN  74  70  87 W5        29.87S
LACON*         RAIN      71  69  95 CALM      29.86S
LINCOLN*       CLOUDY    77  71  81 S10       29.86F
SPRINGFIELD    CLOUDY    80  73  79 S13       29.87F HX  84
TAYLORVILLE    CLOUDY    75  72  88 S10       29.89F
$$

ILZ033-039-045-046-055>057-062-063-070600-
EAST-CENTRAL ILLINOIS

CITY           SKY/WX    TMP DP  RH WIND       PRES   REMARKS
CHAMPAIGN      CLOUDY    75  72  90 S8        29.90F
DANVILLE*      RAIN      75  72  91 S8G16     29.89S
RANTOUL*       CLOUDY    75  73  93 S7        29.89F
MATTOON        CLOUDY    76  73  91 S8        29.92S
PARIS*         MOCLDY    74  73  96 S7        29.93S
$$

ILZ079-100>102-070600-
SOUTHWEST ILLINOIS

CITY           SKY/WX    TMP DP  RH WIND       PRES   REMARKS
ALTON          CLOUDY    78  78 100 S12       29.90F
BELLEVILLE     CLOUDY    79  78  96 S13       29.90F HX  83
CAHOKIA*       CLOUDY    80  74  81 S6        29.90F HX  85
SPARTA*        MOCLDY    77  73  88 S10       29.95S
$$

ILZ064>066-069>071-074>076-080>082-084>086-088>090-092>094-070600-
SOUTH-CENTRAL ILLINOIS

CITY           SKY/WX    TMP DP  RH WIND       PRES   REMARKS
CARBONDALE     MOCLDY    78  73  84 S13       29.96F HX  81
CAIRO*         CLOUDY    78  75  90 S8        29.99S HX  80
EFFINGHAM*     CLOUDY    77  72  86 SE7       29.94S
MARION         MOCLDY    77  75  94 S10       29.97F
MT. VERNON     CLOUDY    77  70  78 S13       29.96S
CENTRALIA*     CLOUDY    77  71  80 S10       29.94S
SALEM*         CLOUDY    80  74  81 S8        29.94S HX  84
$$

ILZ067-068-072-073-078-083-087-091-070600-
SOUTHEAST ILLINOIS

CITY           SKY/WX    TMP DP  RH WIND       PRES   REMARKS
LAWRENCEVILLE  PTCLDY    75  73  93 S7        29.96F
FLORA*         PTCLDY    77  73  87 S9        29.95S
FAIRFIELD*     CLOUDY    77  74  90 S7        29.95S
HARRISBURG*    MOCLDY    77  75  92 S5        29.99S
ROBINSON*      PTCLDY    76  73  90 S8        29.95S
CARMI*         MOCLDY    76  70  81 S7        29.97S
$$

ABBREVIATIONS USED IN REMARKS
   TC - TEMPERATURE IN CELSIUS
  WCI - WIND CHILL INDEX
   HX - HEAT INDEX
  VSB - VISIBILITY
$$




USA.gov is the U.S. government's official web portal to all federal, state and local government web resources and services.